Flag for Germany Weather past 2 weeks in Leverkusen, North Rhine-Westphalia, Germany

Now
57 °F

Fog.


Feels Like: 57 °F
Forecast: 60 / 72 °F
Wind: 1 mph from North

Location: Koeln / Bonn

Current Time: Jul 24, 2014 at 6:23:11 AM

Latest Report: Jul 24, 2014 at 5:50 AM


Visibility: N/A

Pressure: 29.95 "Hg

Humidity: 94%

Dew point: 55 °F

Location of LeverkusenLocation

Historic Weather in Leverkusen — Graph

°F

Leverkusen temperature yesterday

Maximum temperature yesterday: 84 °F (at 1:50 PM)
Minimum temperature yesterday: 63 °F (at 3:50 AM)
Average temperature yesterday: 72 °F

Past Weeks' High & Low Weather Summary

 TemperatureHumidityPressure
High91 °F (Jul 19, 2:50 PM)100% (Jul 9, 6:50 AM)30.18 "Hg (Jul 9, 6:50 AM)
Low54 °F (Jul 9, 4:50 AM)26% (Jul 19, 2:50 PM)29.65 "Hg (Jul 9, 5:20 PM)
Average69 °F76%29.95 "Hg
* Reported Jul 9 4:50 AM — Jul 24 4:50 AM, Leverkusen, Weather by CustomWeather, © 2014

Note: Actual official high and low records may vary slightly from our data, if they occured in-between our weather recording intervals... More about our weather records

Advertising

Leverkusen weather history for previous 24 hours

 ConditionsComfort  
Time TempWeatherWind HumidityBarometerVisibility
4:50 AM
Jul 24
61 °FClear.5 mph88%29.95 "Hg10 mi
4:20 AM61 °FFog.2 mph88%29.95 "HgN/A
3:50 AM61 °FFog.2 mph88%29.98 "HgN/A
3:20 AM63 °FFog.1 mph88%29.98 "HgN/A
2:50 AM63 °FFog.1 mph88%29.98 "HgN/A
2:20 AM64 °FFog.2 mph83%29.98 "HgN/A
1:50 AM66 °FClear.3 mph78%29.98 "Hg10 mi
1:20 AM68 °FClear.6 mph73%29.98 "Hg10 mi
12:50 AM66 °FClear.2 mph78%29.98 "Hg10 mi
12:20 AM66 °FClear.3 mph83%29.98 "Hg10 mi
11:50 PM
Jul 23
66 °FClear.6 mph83%30.01 "Hg10 mi
11:20 PM68 °FClear.5 mph83%30.01 "Hg10 mi
10:50 PM70 °FClear.6 mph78%30.01 "Hg10 mi
10:20 PM72 °FSunny.5 mph73%30.01 "Hg10 mi
9:50 PM73 °FSunny.5 mph69%29.98 "Hg10 mi
9:20 PM75 °FSunny.6 mph65%29.98 "Hg10 mi
8:50 PM77 °FPassing clouds.6 mph65%29.98 "HgN/A
8:20 PM77 °FPassing clouds.5 mph65%29.98 "HgN/A
7:50 PM79 °FScattered clouds.6 mph58%29.98 "HgN/A
7:20 PM79 °FSunny.5 mph61%29.98 "Hg10 mi
6:50 PM75 °FSunny.7 mph69%29.98 "Hg10 mi
6:20 PM75 °FPartly sunny.9 mph65%29.98 "HgN/A
5:50 PM73 °FBroken clouds.10 mph65%29.98 "HgN/A
5:20 PM73 °FBroken clouds.10 mph57%29.98 "HgN/A
4:50 PM72 °FBroken clouds.9 mph61%30.01 "HgN/A
4:20 PM73 °FScattered showers. Broken clouds.12 mph61%30.01 "HgN/A
3:50 PM75 °FThunderstorms. Broken clouds.12 mph54%30.01 "HgN/A
3:20 PM82 °FThundershowers. Broken clouds.8 mph48%30.01 "HgN/A
2:50 PM84 °FScattered showers. Broken clouds.3 mph43%30.01 "HgN/A
1:50 PM84 °FPartly sunny.3 mph48%30.01 "HgN/A
1:20 PM82 °FPartly sunny.7 mph51%30.04 "HgN/A
12:50 PM82 °FPartly sunny.3 mph45%30.04 "HgN/A
12:20 PM81 °FSunny.3 mph54%30.04 "Hg10 mi
11:50 AM81 °FSunny.3 mph54%30.04 "Hg10 mi
11:20 AM79 °FSunny.2 mph54%30.04 "Hg10 mi
7:20 AM64 °FSunny.3 mph94%30.07 "Hg10 mi
6:50 AM63 °FSunny.3 mph100%30.07 "Hg10 mi
6:20 AM63 °FFog.2 mph94%30.07 "HgN/A
Weather by CustomWeather, © 2014

See weather overviewHow to use our weather pages